Terminal Aerodrome Forecast
Issued by NWS St Louis, MO

Home | Current Version | Previous Version | Text Only | Print | Product List | Glossary On
Versions: 1 2 3 4 5 6 7 8 9 10 11 12 13 14 15 16 17 18
000
FTUS43 KLSX 251100
TAFCOU
TAF
KCOU 251121Z 2512/2612 26012KT P6SM -RA SCT008 OVC012
     FM251500 30015G23KT P6SM -RA OVC007
     FM252200 34015G25KT 2SM -SN BR OVC007
     FM260000 35012KT P6SM OVC010
     FM260900 31006KT P6SM SCT010=

USA.gov is the U.S. government's official web portal to all federal, state and local government web resources and services.